Regional Weather Roundup
Issued by NWS Kansas City/Pleasant Hill, MO

Home | Current Version | Previous Version | Graphics & Text | Print | Product List | Glossary Off
Versions: 1 2 3 4 5 6 7 8 9 10 11 12 13 14 15 16 17 18 19 20 21 22 23 24 25 26 27 28 29 30 31 32 33 34 35 36 37 38 39 40 41 42 43 44 45 46 47 48 49 50

000
ASUS43 KEAX 022210
RWREAX

WEATHER ROUNDUP FOR EASTERN KANSAS AND NORTHWEST MISSOURI
NATIONAL WEATHER SERVICE KANSAS CITY/PLEASANT HILL MO
500 PM CDT SUN AUG 02 2015

KSZ040-057-103>105-MOZ028-029-037-043-022300-
...KANSAS CITY METROPOLITAN AREA...

CITY           SKY/WX    TMP DP  RH WIND       PRES   REMARKS
K.C. INTL      SUNNY     89  71  55 SW15      29.85F HX  95
K.C. DOWNTOWN  SUNNY     93  68  43 SW14      29.84F HX  97
LEES SUMMIT    SUNNY     92  64  39 SW13      29.87F HX  93
OLATHE - IXD   MOSUNNY   93  66  40 SW9       29.88F HX  96
OLATHE - OJC   SUNNY     92  65  40 W13       29.87F HX  94
LAWRENCE       SUNNY     92  68  45 W12       29.86F HX  96

$$

MOZ001>008-011>017-020>025-030>033-038>040-044>046-053-054-022300-
...NORTHERN AND CENTRAL MISSOURI...

CITY           SKY/WX    TMP DP  RH WIND       PRES   REMARKS
ST. JOSEPH     SUNNY     89  74  60 SW12      29.84S HX  98
MOSBY          CLEAR     91  64  40 SW10      29.85F HX  93
WARRENSBURG    SUNNY     91  63  38 SW13      29.87F HX  92
WHITEMAN AFB   SUNNY     93  65  40 W9        29.86F HX  95
CLINTON        SUNNY     91  70  49 SW7       29.89F HX  97
SEDALIA        MOSUNNY   91  66  43 W10G21    29.89F HX  93
WARSAW         NOT AVBL
CHILLICOTHE      N/A     91  72  53 SW7       29.85S HX  98
KIRKSVILLE     SUNNY     89  71  55 SW15G21   29.84F HX  95

$$

MOZ041-047>049-056>058-063>065-088>090-097-022300-
...EASTERN AND SOUTHERN MISSOURI...

CITY           SKY/WX    TMP DP  RH WIND       PRES   REMARKS
ST. LOUIS INTL PTSUNNY   94  67  41 SW15      29.87F HX  97
SPIRIT OF STL  MOSUNNY   92  70  48 W9        29.85F HX  97
COLUMBIA       SUNNY     89  69  51 SW12      29.89F HX  93
JEFFERSON CITY MOSUNNY   91  65  41 W10       29.87F HX  93
ROLLA          SUNNY     90  65  43 W10       29.90F HX  92
OSAGE BEACH    SUNNY     91  64  40 W8        29.91S HX  93
SPRINGFIELD    MOSUNNY   91  63  39 SW12      29.93F HX  92
BRANSON        PTSUNNY   91  63  38 W3        29.96F HX  92
JOPLIN         SUNNY     94  57  28 SW16G25   29.92F HX  92
WEST PLAINS    MOSUNNY   90  65  43 SW7       29.96S HX  92

$$

IAZ060-094-KSZ022-034>040-054-083-096-NEZ052-066-093-022300-
...KANSAS...SOUTHEAST NEBRASKA AND IOWA...

CITY           SKY/WX    TMP DP  RH WIND       PRES   REMARKS
TOPEKA         SUNNY     92  69  47 SW8       29.85F HX  97
MANHATTAN      SUNNY     96  68  39 S9        29.84F HX 101
EMPORIA        SUNNY     90  68  48 SW9       29.89F HX  94
CHANUTE        SUNNY     93  62  35 SW15G25   29.90F HX  93
WICHITA        MOSUNNY   90  69  50 S12       29.89F HX  94
OMAHA          MOSUNNY   95  72  47 W12       29.78R HX 103
LINCOLN        SUNNY     95  71  45 SW13      29.82F HX 102
FALLS CITY     SUNNY     91  74  57 SW8       29.83F HX 100
LAMONI         SUNNY     89  74  60 SW14G24   29.82F HX  98
DES MOINES     MOSUNNY   93  73  52 W16       29.75S THUNDER HX 102

$$




USA.gov is the U.S. government's official web portal to all federal, state and local government web resources and services.